{"data":{"norad_id":64447,"epoch":"2026-09-20T06:03:56.629728Z","epoch_age_seconds":155511,"freshness":"FRESH","line1":"1 64447U 25130K   26263.25273877  .00003838  00000+0  12468-3 0  9991","line2":"2 64447  53.1577 262.5361 0001399  95.0439 265.0723 15.34394507 70522","mean_motion":15.34394507,"eccentricity":0.0001399,"inclination_deg":53.1577,"raan_deg":262.5361,"arg_perigee_deg":95.0439,"mean_anomaly_deg":265.0723,"bstar":0.00012468,"rev_number":7052,"period_min":93.848094048215,"perigee_km":461.76253077574,"apogee_km":463.67660244308,"semimajor_km":6840.8565666094,"source":"CELESTRAK","updated_at":"2026-09-21T09:00:35.353790Z"}}